Regional Weather Roundup
Issued by NWS

Home | Current Version | Previous Version | Text Only | Print | Product List | Glossary Off
Versions: 1 2 3 4 5 6 7 8 9 10 11 12 13 14 15 16 17 18 19 20 21 22 23 24 25 26 27 28 29 30 31 32 33 34 35 36 37 38 39 40 41 42 43 44 45 46 47 48 49 50

395
ASUS43 KFSD 270402
RWRSD

WEATHER ROUNDUP FOR SOUTH DAKOTA
NATIONAL WEATHER SERVICE SIOUX FALLS SD
1100 PM CDT SUN MAR 26 2017

NOTE: "FAIR" INDICATES FEW OR NO CLOUDS BELOW 12,000 FEET WITH NO
SIGNIFICANT WEATHER AND/OR OBSTRUCTIONS TO VISIBILITY.


SDZ001>005-009-010-012>017-270500-
NORTHWEST AND NORTH CENTRAL SOUTH DAKOTA

CITY           SKY/WX    TMP DP  RH WIND       PRES   REMARKS
BUFFALO          N/A     43  37  79 W5        29.85S
FAITH            N/A     44  41  89 MISG      29.93R
MOBRIDGE       CLOUDY    44  35  70 CALM      29.91R
$$

SDZ012>016-024>037-041>051-057-063-072>074-270500-
SOUTHWEST AND SOUTH CENTRAL SOUTH DAKOTA

CITY           SKY/WX    TMP DP  RH WIND       PRES   REMARKS
RAPID CTY ARPT CLEAR     32  31  96 CALM      29.94R
PIERRE         CLOUDY    40  38  93 S6        29.95R
CUSTER         CLEAR     33  30  88 CALM      29.92F
ELLSWORTH AFB  CLEAR     38  38 100 CALM      29.93S
PHILIP         CLOUDY    42  39  89 CALM      29.96R
PINE RIDGE     CLOUDY    44  40  85 CALM      29.96R
SPEARFISH      FAIR      36  32  87 S5        29.93F
WINNER         FAIR      36  33  89 SW3       29.98R
$$

SDZ004>011-016>023-039-040-270500-
NORTHEAST SOUTH DAKOTA

CITY           SKY/WX    TMP DP  RH WIND       PRES   REMARKS
ABERDEEN       CLOUDY    41  35  79 CALM      29.94R
WATERTOWN      CLOUDY    36  35  96 SE3       29.94R
SISSETON         N/A     35  35 100 SW6       29.94S
$$

SDZ017-020-022-023-036>040-048>070-270500-
SOUTHEAST SOUTH DAKOTA

CITY           SKY/WX    TMP DP  RH WIND       PRES   REMARKS
SIOUX FALLS    CLOUDY    44  39  82 E3        29.97F
HURON          PTCLDY    38  37  97 S5        29.95S
CHAMBERLAIN    CLOUDY    36  36 100 SE3       29.97S FOG
MITCHELL       CLOUDY    44  38  79 SE3       29.97F
YANKTON        CLOUDY    45  39  81 CALM      29.97S
$$

ABBREVIATIONS USED IN REMARKS
   TC - TEMPERATURE IN CELSIUS
  WCI - WIND CHILL INDEX
   HX - HEAT INDEX
  VSB - VISIBILITY





USA.gov is the U.S. government's official web portal to all federal, state and local government web resources and services.